Monroe, WI

11:21 PM CDT on September 27, 2016 (GMT -0500)
Monroe Municipal

Weather History for KEFT - October, 2012

Change the Weather History Date:

Saturday, October 6, 2012

  Actual Average Record
Temperature  
Mean Temperature 38 °F -  
Max Temperature 42 °F 0 °F 86 °F (2007)
Min Temperature 33 °F - 32 °F (2000)
Degree Days  
Heating Degree Days 28    
Moisture  
Dew Point 25 °F    
Average Humidity 59    
Maximum Humidity 75    
Minimum Humidity 46    
Precipitation  
Precipitation 0.00 in - - ()
Sea Level Pressure  
Sea Level Pressure 30.13 in    
Wind  
Wind Speed 10 mph (WNW)    
Max Wind Speed 14 mph    
Max Gust Speed 21 mph    
Visibility 10 miles    
Events      
Averages and records for this station are not official NWS values.
T = Trace of Precipitation, MM = Missing Value Source: NWS Daily Summary

Daily Weather History Graph

Daily Weather History Graph

Search for Another Location

Airport or City:

Trip Planner

Search our weather history database for the weather conditions in past years. The results will help you decide how hot, cold, wet, or windy it might be!

Date:

Astronomy

Oct. 06, 2012 Rise Set
Actual Time 7:01 AM CDT 6:30 PM CDT
Civil Twilight 6:33 AM CDT 6:58 PM CDT
Nautical Twilight 6:00 AM CDT 7:30 PM CDT
Astronomical Twilight 5:27 AM CDT 8:03 PM CDT
Moon 10:40 PM CDT (10/6) 1:02 PM CDT (10/6)
Length of Visible Light 12h 24m
Length of Day
11h 28m
Waning Gibbous, 65% of the Moon is Illuminated
Oct 6
Waning Gibbous
Oct 8
Last Quarter
Oct 15
New
Oct 21
First Quarter
Oct 29
Full

Hourly Weather History & Observations

Time (CDT) Temp. Windchill Dew Point Humidity Pressure Visibility Wind Dir Wind Speed Gust Speed Precip Events Conditions
12:15 AM 35.6 °F 28.0 °F 23.0 °F 60% 30.07 in 10.0 mi West 10.4 mph - N/A   Clear
12:35 AM 37.4 °F 29.8 °F 23.0 °F 56% 30.07 in 10.0 mi West 11.5 mph - N/A   Clear
12:55 AM 35.6 °F 27.5 °F 23.0 °F 60% 30.07 in 10.0 mi West 11.5 mph - N/A   Clear
1:15 AM 35.6 °F 26.6 °F 23.0 °F 60% 30.06 in 10.0 mi WNW 13.8 mph - N/A   Clear
1:55 AM 35.6 °F 27.1 °F 24.8 °F 65% 30.07 in 10.0 mi West 12.7 mph - N/A   Clear
2:15 AM 35.6 °F 26.6 °F 24.8 °F 65% 30.07 in 10.0 mi West 13.8 mph - N/A   Scattered Clouds
2:35 AM 35.6 °F 28.0 °F 24.8 °F 65% 30.07 in 10.0 mi West 10.4 mph 16.1 mph N/A   Overcast
2:55 AM 35.6 °F 27.5 °F 24.8 °F 65% 30.07 in 10.0 mi West 11.5 mph - N/A   Overcast
3:15 AM 35.6 °F 28.0 °F 26.6 °F 70% 30.07 in 10.0 mi WSW 10.4 mph - N/A   Overcast
3:55 AM 33.8 °F 25.3 °F 24.8 °F 70% 30.07 in 10.0 mi WSW 11.5 mph - N/A   Scattered Clouds
4:15 AM 33.8 °F 24.3 °F 26.6 °F 75% 30.07 in 10.0 mi West 13.8 mph 17.3 mph N/A   Scattered Clouds
4:35 AM 35.6 °F 28.6 °F 26.6 °F 70% 30.07 in 10.0 mi WSW 9.2 mph - N/A   Mostly Cloudy
4:55 AM 35.6 °F 29.2 °F 26.6 °F 70% 30.07 in 10.0 mi WSW 8.1 mph - N/A   Overcast
5:15 AM 35.6 °F 28.6 °F 26.6 °F 70% 30.08 in 10.0 mi WSW 9.2 mph - N/A   Scattered Clouds
5:35 AM 33.8 °F 26.4 °F 26.6 °F 75% 30.08 in 10.0 mi WSW 9.2 mph - N/A   Clear
5:55 AM 33.8 °F 26.4 °F 26.6 °F 75% 30.09 in 10.0 mi WSW 9.2 mph - N/A   Clear
6:15 AM 33.8 °F 25.8 °F 26.6 °F 75% 30.09 in 10.0 mi WSW 10.4 mph - N/A   Scattered Clouds
6:55 AM 33.8 °F 26.4 °F 26.6 °F 75% 30.10 in 10.0 mi WSW 9.2 mph - N/A   Overcast
7:15 AM 33.8 °F 25.8 °F 26.6 °F 75% 30.10 in 10.0 mi WSW 10.4 mph - N/A   Overcast
7:35 AM 33.8 °F 25.8 °F 26.6 °F 75% 30.11 in 10.0 mi WSW 10.4 mph - N/A   Overcast
7:55 AM 33.8 °F 24.8 °F 26.6 °F 75% 30.11 in 10.0 mi WSW 12.7 mph - N/A   Overcast
8:15 AM 35.6 °F 27.5 °F 26.6 °F 70% 30.12 in 10.0 mi West 11.5 mph - N/A   Overcast
8:35 AM 35.6 °F 27.5 °F 26.6 °F 70% 30.12 in 10.0 mi West 11.5 mph - N/A   Overcast
8:55 AM 35.6 °F 29.9 °F 26.6 °F 70% 30.13 in 10.0 mi WNW 6.9 mph - N/A   Overcast
9:15 AM 37.4 °F 32.1 °F 26.6 °F 65% 30.13 in 10.0 mi WNW 6.9 mph - N/A   Overcast
9:35 AM 37.4 °F 30.8 °F 26.6 °F 65% 30.14 in 10.0 mi WNW 9.2 mph - N/A   Overcast
9:55 AM 39.2 °F 33.0 °F 26.6 °F 61% 30.14 in 10.0 mi WNW 9.2 mph - N/A   Overcast
10:15 AM 41.0 °F 34.7 °F 26.6 °F 57% 30.14 in 10.0 mi NW 10.4 mph 16.1 mph N/A   Overcast
10:35 AM 41.0 °F 33.9 °F 26.6 °F 57% 30.15 in 10.0 mi NNW 12.7 mph 19.6 mph N/A   Overcast
10:55 AM 41.0 °F 34.3 °F 26.6 °F 57% 30.15 in 10.0 mi NNW 11.5 mph 19.6 mph N/A   Overcast
11:15 AM 41.0 °F 33.5 °F 26.6 °F 57% 30.15 in 10.0 mi NW 13.8 mph 19.6 mph N/A   Overcast
11:35 AM 42.8 °F 35.8 °F 24.8 °F 49% 30.15 in 10.0 mi NW 13.8 mph 20.7 mph N/A   Overcast
11:55 AM 42.8 °F 35.8 °F 24.8 °F 49% 30.16 in 10.0 mi NW 13.8 mph 20.7 mph N/A   Overcast
12:15 PM 42.8 °F 36.6 °F 24.8 °F 49% 30.16 in 10.0 mi WNW 11.5 mph 18.4 mph N/A   Overcast
12:35 PM 42.8 °F 36.6 °F 24.8 °F 49% 30.16 in 10.0 mi NNW 11.5 mph 18.4 mph N/A   Overcast
12:55 PM 42.8 °F 35.8 °F 24.8 °F 49% 30.15 in 10.0 mi NW 13.8 mph 20.7 mph N/A   Overcast
1:15 PM 42.8 °F 39.3 °F 24.8 °F 49% 30.15 in 10.0 mi NW 5.8 mph - N/A   Overcast
1:35 PM 42.8 °F 38.6 °F 24.8 °F 49% 30.15 in 10.0 mi WNW 6.9 mph - N/A   Overcast
1:55 PM 42.8 °F 37.5 °F 24.8 °F 49% 30.14 in 10.0 mi WNW 9.2 mph - N/A   Overcast
2:15 PM 42.8 °F 38.0 °F 24.8 °F 49% 30.14 in 10.0 mi NW 8.1 mph 17.3 mph N/A   Overcast
2:35 PM 42.8 °F 41.1 °F 24.8 °F 49% 30.15 in 10.0 mi NNW 3.5 mph 16.1 mph N/A   Overcast
2:55 PM 42.8 °F 39.3 °F 24.8 °F 49% 30.15 in 10.0 mi NW 5.8 mph - N/A   Overcast
3:15 PM 42.8 °F 38.0 °F 24.8 °F 49% 30.15 in 10.0 mi NNW 8.1 mph - N/A   Overcast
3:35 PM 42.8 °F 38.0 °F 24.8 °F 49% 30.14 in 10.0 mi NNW 8.1 mph - N/A   Overcast
3:55 PM 42.8 °F 38.6 °F 24.8 °F 49% 30.14 in 10.0 mi NW 6.9 mph - N/A   Overcast
4:15 PM 42.8 °F 38.0 °F 24.8 °F 49% 30.15 in 10.0 mi NW 8.1 mph - N/A   Overcast
4:35 PM 42.8 °F 37.5 °F 23.0 °F 46% 30.15 in 10.0 mi NW 9.2 mph - N/A   Overcast
4:55 PM 42.8 °F 37.0 °F 23.0 °F 46% 30.16 in 10.0 mi WNW 10.4 mph - N/A   Overcast
5:15 PM 42.8 °F 38.6 °F 23.0 °F 46% 30.16 in 10.0 mi WNW 6.9 mph - N/A   Overcast
5:35 PM 42.8 °F 39.3 °F 23.0 °F 46% 30.16 in 10.0 mi NW 5.8 mph - N/A   Overcast
6:15 PM 42.8 °F 38.0 °F 23.0 °F 46% 30.17 in 10.0 mi NW 8.1 mph - N/A   Overcast
6:35 PM 41.0 °F 34.7 °F 23.0 °F 49% 30.17 in 10.0 mi NW 10.4 mph - N/A   Overcast
6:55 PM 41.0 °F 37.1 °F 23.0 °F 49% 30.18 in 10.0 mi NW 5.8 mph - N/A   Overcast
7:15 PM 41.0 °F 37.1 °F 23.0 °F 49% 30.18 in 10.0 mi NW 5.8 mph - N/A   Overcast
7:35 PM 41.0 °F 35.2 °F 23.0 °F 49% 30.18 in 10.0 mi WNW 9.2 mph - N/A   Overcast
7:55 PM 41.0 °F 37.1 °F 24.8 °F 53% 30.18 in 10.0 mi NW 5.8 mph - N/A   Overcast
8:15 PM 41.0 °F 37.1 °F 24.8 °F 53% 30.18 in 10.0 mi NW 5.8 mph - N/A   Overcast
8:35 PM 39.2 °F 35.0 °F 24.8 °F 56% 30.18 in 10.0 mi WNW 5.8 mph - N/A   Overcast
8:55 PM 41.0 °F 37.1 °F 24.8 °F 53% 30.18 in 10.0 mi WNW 5.8 mph - N/A   Overcast
9:15 PM 41.0 °F 36.4 °F 24.8 °F 53% 30.18 in 10.0 mi WNW 6.9 mph - N/A   Overcast
9:35 PM 41.0 °F 34.7 °F 26.6 °F 57% 30.17 in 10.0 mi NW 10.4 mph - N/A   Overcast
9:55 PM 41.0 °F 34.7 °F 26.6 °F 57% 30.18 in 10.0 mi WNW 10.4 mph - N/A   Overcast
10:15 PM 41.0 °F 35.8 °F 26.6 °F 57% 30.19 in 10.0 mi WNW 8.1 mph - N/A   Overcast
10:35 PM 39.2 °F 35.0 °F 26.6 °F 61% 30.19 in 10.0 mi WNW 5.8 mph - N/A   Overcast
10:55 PM 39.2 °F 34.2 °F 26.6 °F 61% 30.18 in 10.0 mi WNW 6.9 mph - N/A   Overcast
11:15 PM 39.2 °F 33.6 °F 26.6 °F 61% 30.18 in 10.0 mi WNW 8.1 mph - N/A   Overcast
11:35 PM 39.2 °F 34.2 °F 26.6 °F 61% 30.18 in 10.0 mi WNW 6.9 mph - N/A   Overcast
11:55 PM 39.2 °F 34.2 °F 26.6 °F 61% 30.18 in 10.0 mi WNW 6.9 mph - N/A   Overcast